GFSFLT1_sfc_thetae_117.txt.gz
Theta_e
300 305 309 310 314 333 339 337 337 337 337 336 336 335 336 337 338 338 336 337 338 337 335 334 333 331 329 331 329 331 332 332
301 309 310 310 315 330 337 337 336 335 334 332 330 329 331 332 337 338 336 335 336 337 333 332 331 330 329 330 329 328 328 332
301 305 304 305 307 313 335 338 338 335 335 335 336 334 334 333 334 335 336 337 335 335 334 330 330 329 329 328 328 325 326 328
300 301 301 302 303 306 313 332 339 338 337 336 336 335 335 333 332 332 333 337 336 336 334 333 330 330 328 328 327 328 323 325
296 297 298 299 300 304 310 317 335 337 336 336 333 332 329 332 333 333 332 334 335 336 334 333 332 331 330 328 328 329 328 324
293 294 296 297 299 300 304 309 309 313 328 335 332 333 334 334 334 332 333 333 334 335 334 332 332 331 331 330 329 328 330 329
293 294 295 295 297 298 301 305 305 307 311 314 328 333 333 330 332 331 332 333 332 334 334 333 333 333 333 333 331 330 330 329
292 291 291 293 293 294 298 301 301 303 305 308 310 312 320 330 331 332 330 330 330 332 331 331 332 332 332 333 332 331 329 327
291 291 291 291 292 292 293 297 298 300 304 305 309 310 312 314 329 331 333 330 331 332 331 332 331 330 330 331 330 329 329 329
288 290 291 291 291 291 292 293 295 296 299 301 304 307 309 313 315 326 330 333 331 331 331 330 329 330 329 329 329 328 327 327
287 288 289 290 290 291 292 292 292 294 296 298 301 303 305 309 316 316 325 328 330 330 329 329 328 328 327 327 327 328 326 326
285 287 288 288 289 289 290 290 291 292 294 295 297 298 300 303 306 312 312 326 326 326 327 327 327 325 325 325 326 326 325 324
284 285 286 286 287 287 287 288 289 290 292 293 294 295 296 298 298 301 305 308 326 325 325 324 325 326 326 324 323 323 323 321
284 284 284 284 285 285 286 287 288 290 291 291 291 292 293 294 295 297 299 301 305 319 324 323 323 323 322 322 323 322 321 321
282 282 283 283 283 284 284 285 287 289 289 289 289 290 291 291 293 294 295 297 297 299 301 316 321 320 320 320 321 320 320 320
281 281 281 282 281 282 283 284 285 287 287 287 287 289 290 290 290 291 293 293 294 295 294 294 295 294 293 294 306 318 319 319
280 281 281 282 281 281 281 282 284 285 284 285 287 287 287 287 288 288 289 289 290 291 291 291 290 291 289 290 293 307 318 317
279 280 280 281 282 281 280 281 283 283 283 283 284 286 286 286 286 287 286 287 287 287 288 288 288 288 289 289 291 292 297 305
279 279 279 281 283 283 282 281 281 281 281 281 282 283 285 285 285 285 285 285 285 285 285 286 286 286 288 288 288 288 287 287

GFSFLT1_sfc_thetae_120.txt.gz
Theta_e
304 306 307 308 309 314 316 320 341 341 342 341 339 339 340 341 342 343 340 341 340 340 340 340 340 339 337 335 335 338 336 335
304 305 307 307 310 315 317 318 335 341 338 336 335 334 337 338 340 342 343 340 340 340 338 338 338 336 334 334 334 334 334 336
303 304 306 312 313 315 319 322 327 339 340 338 336 336 336 337 339 341 343 338 339 339 338 337 335 335 334 334 331 331 332 334
303 306 308 310 311 313 316 326 328 338 338 339 337 338 337 335 336 338 340 341 338 338 339 336 335 334 334 333 331 331 328 330
297 299 300 302 304 307 314 323 330 337 337 337 334 335 332 336 336 337 336 339 340 337 338 337 336 334 334 333 333 331 332 325
293 294 296 297 298 300 307 312 312 316 336 337 334 338 338 339 338 337 336 337 340 339 338 336 335 336 335 335 331 331 332 331
292 294 295 294 296 297 301 306 306 310 315 326 335 333 337 338 336 336 335 335 335 336 340 338 337 335 334 334 333 333 332 332
289 290 291 294 294 294 298 301 302 307 311 313 318 320 326 336 336 336 333 333 331 333 337 337 336 336 335 335 333 334 334 334
286 287 290 291 292 293 294 296 297 301 304 309 312 314 315 317 322 326 337 334 334 335 335 336 336 336 335 339 337 337 337 336
285 287 289 290 292 290 292 294 295 297 300 304 306 308 309 311 315 318 319 335 334 335 333 332 333 334 334 335 336 332 334 335
284 285 286 289 290 290 291 292 293 294 297 299 301 303 305 307 311 315 318 318 329 333 332 331 332 332 331 331 331 331 329 330
283 284 286 286 288 289 289 290 291 292 294 295 297 298 300 302 303 305 309 313 314 329 330 330 330 329 327 326 327 328 327 328
283 283 284 284 285 286 287 289 290 291 292 293 293 294 295 296 298 299 302 306 308 317 327 329 329 328 327 325 325 326 326 325
283 283 282 282 283 285 287 288 291 293 292 292 292 292 292 293 294 296 297 299 301 303 304 309 322 325 326 326 325 324 325 325
283 283 283 283 283 283 285 288 289 291 292 292 290 291 292 292 292 293 294 295 296 297 297 297 297 297 297 298 306 321 323 323
281 282 282 284 283 283 285 287 287 289 289 290 291 290 291 291 291 291 292 292 293 293 293 292 293 292 291 292 296 304 317 321
281 281 281 282 283 283 283 284 286 288 288 287 289 291 290 289 290 290 290 289 290 290 290 289 288 289 289 290 293 303 301 310
280 280 281 282 283 284 283 284 285 285 286 286 287 288 288 289 288 288 286 287 287 287 288 288 287 287 288 289 289 293 291 291
280 281 281 282 284 284 285 284 284 284 283 284 285 286 286 287 288 288 288 287 286 285 285 287 286 286 287 287 288 291 289 288

GFSFLT1_sfc_thetae_123.txt.gz
Theta_e
309 309 309 309 309 311 313 315 322 326 345 343 342 342 341 341 343 344 346 344 344 344 342 342 344 342 338 341 340 340 338 335
306 309 310 309 309 309 310 313 321 324 340 340 340 338 339 340 340 345 345 343 342 342 341 341 342 341 338 338 339 338 336 339
301 303 308 311 313 314 315 315 317 322 324 341 341 339 339 340 340 344 347 343 341 342 340 339 339 337 337 338 337 335 337 339
295 297 299 304 305 308 312 314 316 320 326 337 337 341 339 337 337 340 344 343 340 340 341 339 338 338 335 337 336 335 332 336
292 293 294 297 299 302 305 309 314 319 325 328 334 335 333 334 337 339 342 345 340 340 340 338 337 336 335 335 337 336 335 328
289 290 291 294 296 296 298 303 312 314 318 326 337 333 338 338 339 339 342 344 342 339 339 338 336 335 335 336 334 335 336 331
291 290 290 292 295 295 296 300 305 307 314 329 340 333 337 333 337 339 339 339 340 343 339 339 338 336 334 335 335 335 334 334
288 286 287 288 291 293 296 298 301 303 309 314 316 333 334 339 330 335 335 333 335 339 341 341 337 336 335 336 334 333 335 332
285 285 286 286 289 291 294 296 298 301 305 308 311 313 321 323 319 321 331 333 334 337 338 339 339 337 336 335 334 333 335 332
284 284 285 285 286 286 292 294 296 298 300 304 306 308 314 315 317 319 321 322 327 336 338 336 336 335 335 335 333 336 336 336
284 284 284 285 285 288 292 294 293 295 298 300 302 303 306 306 307 309 311 314 317 318 335 336 333 332 334 334 333 334 334 333
283 283 284 285 286 286 289 293 293 293 294 295 297 299 301 300 301 302 306 310 309 312 322 332 332 331 330 330 329 330 330 328
284 283 284 284 284 286 289 289 291 292 293 293 295 295 295 295 296 298 302 303 304 303 307 307 318 327 329 327 326 327 328 328
284 283 283 283 284 284 286 288 288 290 293 293 292 292 292 292 293 293 295 296 297 297 298 298 297 297 298 300 303 319 325 326
283 283 283 284 284 284 286 287 289 290 291 292 291 291 291 292 292 292 292 292 292 293 294 293 294 293 292 293 297 301 307 317
282 282 283 283 285 285 286 286 288 290 290 290 292 293 293 292 291 290 290 290 290 291 291 290 290 290 290 291 295 301 305 305
281 281 282 282 284 285 286 287 287 288 288 288 291 291 291 291 289 290 289 289 289 289 289 289 288 288 288 289 292 294 294 293
281 281 282 283 284 285 285 286 286 286 285 286 288 289 289 290 291 289 288 287 287 286 287 287 286 286 287 288 289 290 289 288
283 283 283 284 285 285 286 285 286 285 284 284 286 287 287 288 288 288 288 288 287 286 286 286 286 285 286 287 287 288 286 286

GFSFLT1_sfc_thetae_126.txt.gz
Theta_e
301 302 304 305 307 310 312 313 315 319 318 333 339 339 339 341 341 341 343 344 343 342 342 341 342 338 336 337 335 336 333 331
299 300 300 302 303 305 308 309 313 314 311 326 333 334 334 338 339 341 342 342 343 340 339 340 340 338 336 336 335 333 332 333
296 296 296 297 299 301 303 304 306 309 313 316 327 332 334 336 338 339 342 341 341 340 338 338 338 336 336 335 335 332 332 333
293 293 293 295 295 297 299 300 302 305 308 313 315 319 333 332 335 335 342 341 341 340 338 336 337 335 335 334 333 332 329 331
291 291 291 291 292 295 297 298 299 302 307 309 314 314 315 330 333 335 340 341 340 339 338 337 335 335 333 334 333 333 331 328
289 289 289 290 291 292 294 296 297 300 303 309 309 311 315 324 333 332 336 339 339 338 337 336 335 334 334 333 332 332 331 330
288 288 288 288 290 290 291 293 296 299 303 305 310 312 315 319 331 330 334 338 336 336 336 336 335 333 333 333 332 333 331 331
286 285 286 287 287 288 289 290 293 298 300 306 311 314 320 324 329 331 332 335 336 334 334 334 334 333 333 333 333 332 331 330
286 285 285 285 286 286 287 288 292 296 299 304 306 309 315 317 315 323 329 332 333 336 333 334 334 334 333 333 332 332 331 330
285 285 285 285 284 284 285 287 292 295 297 300 302 303 305 308 309 310 316 316 318 321 330 334 335 333 333 332 331 331 331 330
284 284 284 285 285 285 286 288 291 293 296 297 297 298 300 303 305 305 307 307 308 312 313 325 330 331 331 332 331 331 330 329
284 284 284 285 285 285 285 287 289 291 293 294 293 294 296 296 297 299 301 301 301 303 305 306 307 313 321 329 330 330 330 330
284 284 284 284 284 285 285 286 289 288 293 291 292 293 293 293 293 295 296 296 296 296 298 299 299 297 299 302 306 318 325 326
283 283 282 283 284 284 285 286 288 291 292 291 289 289 290 290 291 292 292 293 293 293 293 293 293 294 294 296 299 302 307 312
282 282 282 283 284 284 285 285 287 288 290 289 289 288 288 290 289 289 290 291 291 291 290 290 290 291 292 294 299 302 302 303
282 282 282 283 284 284 285 285 285 287 287 288 288 288 290 289 288 288 288 288 288 289 288 288 288 289 290 292 295 294 293 293
282 282 283 283 284 284 285 285 285 286 286 287 288 288 289 289 288 288 288 287 287 287 287 286 285 286 288 289 290 290 289 288
282 283 283 284 284 285 284 285 286 285 284 285 286 287 287 288 288 288 287 286 286 286 286 286 285 285 287 288 288 287 286 285
284 284 284 285 286 286 286 286 285 285 284 284 285 286 286 286 286 287 286 286 285 285 284 285 284 285 286 287 288 287 285 284